User: anonymous   Login
Location: Sherrills_Ford_Terrell
(35.6000°N, 80.9830°W)
Time: 16:03:38
(UTC-05:00)
Language:

CZ-4B R/B - Orbit

View from above orbital plane
View from above orbital plane
View from above satellite
View from above satellite

Ground track
Ground track

The orbit data is extracted from the following two-line orbital elements,

1 29093U 06015B   14326.30193897  .00013025  00000-0  44076-3 0  4553
2 29093 097.5110 046.5059 0087317 065.4522 335.7908 15.27066455473681
Epoch (UTC): 22 November 2014 07:14:47
Eccentricity: 0.0087317
inclination: 97.5110°
perigee height: 424 km
apogee height: 544 km
right ascension of ascending node: 46.5059°
argument of perigee: 65.4522°
revolutions per day: 15.27066455
mean anomaly at epoch: 335.7908°
orbit number at epoch: 47368

The dashed part of the orbit path shows where the satellite is in the earth's shadow,  

DLR